4XCWR LLHA-LLMG

Flight info

Callsign 4XCWR
Flight time 0h 24m
Altitude 800
Route CVFR
Aircraft C172/L-S/C

Departure

Time 2026-04-25 07:42
Airport Uri Michaeli Haifa International Airport (LLHA)

Arrival

Time 2026-04-25 08:06
Airport Megiddo Airport (LLMG)
Time Latitude Longitude Altitude Speed Heading
2026-04-25 07:33 32.81128 35.04203 21 ft 0 kts 340°
2026-04-25 07:37 32.81139 35.04202 21 ft 6 kts
2026-04-25 07:38 32.81163 35.04276 22 ft 9 kts 112°
2026-04-25 07:38 32.81135 35.04315 22 ft 6 kts 199°
2026-04-25 07:38 32.81041 35.04371 22 ft 29 kts 154°
2026-04-25 07:38 32.80867 35.04448 22 ft 25 kts 163°
2026-04-25 07:39 32.80712 35.04512 21 ft 22 kts 154°
2026-04-25 07:39 32.80578 35.04580 18 ft 20 kts 159°
2026-04-25 07:39 32.80556 35.04565 18 ft 0 kts 339°
2026-04-25 07:40 32.80677 35.04515 21 ft 39 kts 340°
2026-04-25 07:40 32.81040 35.04362 46 ft 66 kts 339°
2026-04-25 07:40 32.81487 35.04168 149 ft 70 kts 339°
2026-04-25 07:41 32.81861 35.03857 337 ft 65 kts 297°
2026-04-25 07:41 32.82049 35.03350 431 ft 72 kts 293°
2026-04-25 07:41 32.82235 35.02704 463 ft 76 kts 292°
2026-04-25 07:41 32.82406 35.02148 594 ft 69 kts 295°
2026-04-25 07:42 32.82550 35.01647 761 ft 61 kts 296°
2026-04-25 07:42 32.82681 35.01149 806 ft 72 kts 289°
2026-04-25 07:42 32.82852 35.00481 810 ft 88 kts 295°
2026-04-25 07:42 32.83019 34.99822 1018 ft 86 kts 290°
2026-04-25 07:43 32.83331 34.99162 1071 ft 98 kts 303°
2026-04-25 07:43 32.83673 34.98404 1020 ft 114 kts 298°
2026-04-25 07:43 32.83636 34.97458 1041 ft 120 kts 255°
2026-04-25 07:43 32.83418 34.96546 1188 ft 115 kts 261°
2026-04-25 07:44 32.83025 34.95664 1010 ft 129 kts 220°
2026-04-25 07:44 32.82268 34.95128 1050 ft 126 kts 199°
2026-04-25 07:44 32.81431 34.94923 1101 ft 125 kts 189°
2026-04-25 07:44 32.80582 34.94732 1180 ft 121 kts 189°
2026-04-25 07:45 32.79790 34.94579 1348 ft 114 kts 186°
2026-04-25 07:45 32.78979 34.94441 1398 ft 118 kts 188°
2026-04-25 07:45 32.78157 34.94293 1376 ft 123 kts 187°
2026-04-25 07:45 32.77279 34.94132 1257 ft 129 kts 188°
2026-04-25 07:46 32.76394 34.93965 1208 ft 129 kts 188°
2026-04-25 07:46 32.75511 34.93861 1206 ft 121 kts 180°
2026-04-25 07:46 32.74762 34.94069 1354 ft 109 kts 148°
2026-04-25 07:46 32.74156 34.94557 1453 ft 102 kts 141°
2026-04-25 07:47 32.73590 34.95080 1547 ft 105 kts 139°
2026-04-25 07:47 32.73037 34.95648 1772 ft 102 kts 136°
2026-04-25 07:47 32.72504 34.96198 1934 ft 106 kts 135°
2026-04-25 07:47 32.71870 34.96642 1974 ft 107 kts 160°
2026-04-25 07:48 32.71157 34.96792 2141 ft 103 kts 177°
2026-04-25 07:48 32.70329 34.96596 1821 ft 133 kts 191°
2026-04-25 07:48 32.69423 34.96410 1701 ft 131 kts 183°
2026-04-25 07:48 32.68536 34.96334 1499 ft 135 kts 181°
2026-04-25 07:49 32.67597 34.96265 1316 ft 134 kts 184°
2026-04-25 07:49 32.66722 34.96182 1456 ft 122 kts 182°
2026-04-25 07:49 32.65876 34.96132 1565 ft 121 kts 180°
2026-04-25 07:49 32.65015 34.96099 1606 ft 122 kts 181°
2026-04-25 07:50 32.64156 34.96047 1615 ft 126 kts 182°
2026-04-25 07:50 32.63300 34.95908 1686 ft 125 kts 192°
2026-04-25 07:50 32.62463 34.95720 1765 ft 123 kts 190°
2026-04-25 07:50 32.61611 34.95519 1827 ft 127 kts 189°
2026-04-25 07:51 32.60766 34.95213 1872 ft 127 kts 201°
2026-04-25 07:51 32.59922 34.94851 1850 ft 127 kts 196°
2026-04-25 07:51 32.59083 34.94519 1840 ft 129 kts 198°
2026-04-25 07:51 32.58252 34.94148 1966 ft 122 kts 201°
2026-04-25 07:52 32.57435 34.93789 1769 ft 133 kts 189°
2026-04-25 07:52 32.56559 34.93546 1773 ft 126 kts 187°
2026-04-25 07:52 32.55704 34.93374 1658 ft 124 kts 186°
2026-04-25 07:52 32.54864 34.93219 1676 ft 123 kts 186°
2026-04-25 07:53 32.54009 34.93064 1691 ft 126 kts 188°
2026-04-25 07:53 32.53120 34.93014 1505 ft 133 kts 178°
2026-04-25 07:53 32.52239 34.93045 1605 ft 117 kts 174°
2026-04-25 07:53 32.51689 34.93046 1560 ft 124 kts 188°
2026-04-25 07:54 32.50587 34.92657 1605 ft 125 kts 198°
2026-04-25 07:54 32.49751 34.92341 1615 ft 127 kts 197°
2026-04-25 07:54 32.48924 34.92000 1612 ft 129 kts 199°
2026-04-25 07:54 32.48080 34.91655 1558 ft 127 kts 196°
2026-04-25 07:55 32.47242 34.91340 1575 ft 131 kts 195°
2026-04-25 07:55 32.46641 34.91399 1421 ft 132 kts 146°
2026-04-25 07:55 32.46178 34.92290 1440 ft 117 kts 114°
2026-04-25 07:55 32.45882 34.93185 1419 ft 116 kts 98°
2026-04-25 07:56 32.46008 34.94110 1435 ft 111 kts 68°
2026-04-25 07:56 32.46335 34.94956 1451 ft 117 kts 63°
2026-04-25 07:56 32.46693 34.95793 1611 ft 112 kts 63°
2026-04-25 07:56 32.47034 34.96614 1711 ft 117 kts 64°
2026-04-25 07:57 32.47376 34.97496 1777 ft 117 kts 66°
2026-04-25 07:57 32.47708 34.98379 1842 ft 118 kts 66°
2026-04-25 07:57 32.48010 34.99265 1946 ft 114 kts 71°
2026-04-25 07:57 32.48209 35.00181 2021 ft 116 kts 77°
2026-04-25 07:58 32.48385 35.01083 2190 ft 108 kts 77°
2026-04-25 07:58 32.48548 35.01969 2318 ft 110 kts 78°
2026-04-25 07:58 32.48753 35.02810 2489 ft 107 kts 75°
2026-04-25 07:58 32.48946 35.03640 2696 ft 104 kts 76°
2026-04-25 07:59 32.49234 35.04496 2454 ft 119 kts 66°
2026-04-25 07:59 32.49595 35.05352 2615 ft 111 kts 62°
2026-04-25 07:59 32.49966 35.06200 2530 ft 121 kts 70°
2026-04-25 07:59 32.50179 35.07161 2298 ft 121 kts 78°
2026-04-25 08:00 32.50368 35.08113 2112 ft 110 kts 79°
2026-04-25 08:00 32.50493 35.08954 2139 ft 104 kts 81°
2026-04-25 08:00 32.50628 35.09856 1876 ft 114 kts 80°
2026-04-25 08:00 32.50796 35.10738 1765 ft 109 kts 72°
2026-04-25 08:01 32.51146 35.11489 1774 ft 99 kts 51°
2026-04-25 08:01 32.51605 35.12065 1701 ft 105 kts 45°
2026-04-25 08:01 32.52091 35.12762 1646 ft 108 kts 61°
2026-04-25 08:01 32.52481 35.13540 1655 ft 110 kts 56°
2026-04-25 08:02 32.52948 35.14244 1707 ft 108 kts 47°
2026-04-25 08:02 32.53478 35.14882 1809 ft 106 kts 45°
2026-04-25 08:02 32.54014 35.15565 1727 ft 117 kts 50°
2026-04-25 08:02 32.54667 35.16139 1743 ft 115 kts 29°
2026-04-25 08:03 32.55327 35.16543 1799 ft 103 kts 29°
2026-04-25 08:03 32.56000 35.16898 1645 ft 115 kts 26°
2026-04-25 08:03 32.56588 35.17469 1439 ft 106 kts 59°
2026-04-25 08:03 32.56962 35.18213 1208 ft 107 kts 58°
2026-04-25 08:04 32.57577 35.18719 1078 ft 115 kts 10°
2026-04-25 08:04 32.58373 35.18660 987 ft 117 kts 355°
2026-04-25 08:04 32.59061 35.18703 924 ft 88 kts 35°
2026-04-25 08:04 32.59532 35.19187 838 ft 83 kts 47°
2026-04-25 08:05 32.59740 35.19657 676 ft 57 kts 82°
2026-04-25 08:05 32.59775 35.20124 597 ft 60 kts 84°
2026-04-25 08:05 32.59792 35.20655 452 ft 67 kts 91°
2026-04-25 08:05 32.59773 35.21226 318 ft 69 kts 93°
2026-04-25 08:06 32.59746 35.21799 216 ft 69 kts 93°
2026-04-25 08:06 32.59733 35.22322 194 ft 57 kts 94°
2026-04-25 08:06 32.59723 35.22696 193 ft 36 kts 92°
2026-04-25 08:06 32.59717 35.22935 193 ft 24 kts 92°
2026-04-25 08:07 32.59712 35.23106 190 ft 18 kts 92°
2026-04-25 08:07 32.59709 35.23267 187 ft 19 kts 92°
2026-04-25 08:07 32.59705 35.23382 186 ft 7 kts 93°
2026-04-25 08:07 32.59719 35.23413 194 ft 3 kts 339°
2026-04-25 08:08 32.59735 35.23399 188 ft 2 kts 329°
2026-04-25 08:08 32.59758 35.23378 188 ft 5 kts 298°
2026-04-25 08:08 32.59754 35.23355 188 ft 4 kts 193°
2026-04-25 08:08 32.59749 35.23370 191 ft 0 kts 39°